Home   Weather   Tábor   Past weeks

Flag for Czech Republic Past Weather in Tábor, Czech Republic — Yesterday and Last 2 Weeks

Now
43 °F

Light rain. Overcast.


Feels Like: 43 °F
Forecast: 36 / 45 °F
Wind: 2 mph from North

Location: Kocelovice

Current Time: Apr 26, 2017 at 2:18:21 am

Latest Report: Apr 26, 2017 at 1:00 am


Visibility: 5 mi

Pressure: 29.78 "Hg

Humidity: 95%

Dew Point: 42 °F

Location of TáborLocation

Past Weather in Tábor — Graph

°F

Tábor Temperature Yesterday

Maximum temperature yesterday: 60 °F (at 3:00 pm)
Minimum temperature yesterday: 33 °F (at 2:00 am)
Average temperature yesterday: 46 °F

High & Low Weather Summary for the Past Weeks

 TemperatureHumidityPressure
High60 °F (Apr 25, 3:00 pm)99% (Apr 26, 12:00 am)30.57 "Hg (Apr 26, 12:00 am)
Low27 °F (Apr 21, 6:00 am)38% (Apr 21, 6:00 pm)29.67 "Hg (Apr 25, 3:00 pm)
Average42 °F70%30.10 "Hg
* Reported Apr 11 12:00 am — Apr 26 12:00 am, Tábor, Weather by CustomWeather, © 2017

Note: Actual official high and low records may vary slightly from our data, if they occured in-between our weather recording intervals... More about our weather records

Advertising

Tábor Weather History for the Previous 24 Hours

Scroll right to see more
 ConditionsComfort  
Time TempWeatherWind HumidityBarometerVisibility
12:00 am
Wed, Apr 26
44 °FLight rain. Overcast.N/A99%29.78 "Hg3 mi
11:00 pm
Tue, Apr 25
44 °FLight rain. Overcast.2 mph96%29.79 "Hg6 mi
10:00 pm44 °FLight rain. Overcast.2 mph95%29.80 "Hg7 mi
9:00 pm45 °FLight rain. Overcast.5 mph89%29.77 "Hg10 mi
8:00 pm48 °FLight rain. Overcast.8 mph74%29.74 "Hg10 mi
7:00 pm52 °FLight rain. Overcast.6 mph59%29.72 "Hg9 mi
6:00 pm56 °FOvercast.5 mph47%29.69 "Hg12 mi
5:00 pm57 °FOvercast.6 mph48%29.69 "Hg14 mi
4:00 pm59 °FOvercast.8 mph46%29.68 "Hg14 mi
3:00 pm60 °FPartly sunny.8 mph46%29.67 "Hg14 mi
2:00 pm58 °FOvercast.12 mph43%29.69 "Hg16 mi
1:00 pm58 °FOvercast.9 mph45%29.70 "Hg16 mi
12:00 pm55 °FOvercast.8 mph49%29.71 "Hg14 mi
11:00 am55 °FOvercast.N/A59%29.70 "Hg14 mi
10:00 am52 °FOvercast.3 mph65%29.70 "Hg14 mi
9:00 am45 °FOvercast.N/A74%29.72 "Hg12 mi
8:00 am39 °FPartly sunny.2 mph89%29.74 "Hg12 mi
7:00 am34 °FChilly.2 mph88%29.76 "Hg12 mi
6:00 am36 °FChilly.1 mph82%29.75 "Hg12 mi
5:00 am36 °FChilly.2 mph85%29.76 "Hg12 mi
4:00 am33 °FChilly.2 mph93%29.79 "Hg12 mi
3:00 am35 °FChilly.2 mph91%29.80 "Hg12 mi
2:00 am33 °FChilly.3 mph92%29.84 "Hg12 mi
Weather by CustomWeather, © 2017

See weather overviewHow to use our weather pages